Vorticity
7 8 8 8 7 6 5 4 4 4 5 6 8 10 12 12 11 10 9 8 7 7 8 11 17 16 12 8 6 4 2 4 5 7 9 10 11 2 2 8 8 9 8 9 9 7 6 4 6 8 3 7 9 3 7 5 -1 4 4 9 12 7 10 8 -1 3 8 11 11 6 1 4 11 6 5 9 6 7 5 4 10 7 5 7 5 7 9 6
6 6 7 8 8 8 8 7 5 4 4 4 5 6 8 11 12 12 11 11 9 8 7 6 10 16 17 13 9 7 4 3 3 4 7 10 9 4 4 6 8 8 6 6 8 7 5 5 6 7 5 7 7 4 7 5 -2 2 6 8 7 0 2 3 -2 1 10 13 12 7 0 1 9 10 10 9 7 6 3 7 12 8 8 9 5 8 9 4
6 6 6 6 6 6 7 7 7 6 5 5 4 4 4 6 8 11 12 12 12 10 9 7 6 9 15 17 14 10 7 6 3 0 2 7 8 7 6 4 6 8 6 6 8 8 6 9 9 6 7 6 5 6 7 4 0 6 8 -3 -4 -2 -0 2 -3 -1 10 11 9 6 2 5 9 11 10 8 10 9 7 11 11 8 9 7 5 10 12 6
6 6 6 6 6 6 6 6 6 6 6 6 6 5 4 4 4 6 8 10 12 12 12 10 8 7 8 14 17 15 11 7 6 2 1 7 7 6 6 6 6 6 9 8 8 8 8 13 11 5 7 6 4 6 6 5 1 5 8 0 -0 2 -0 2 -3 -2 7 10 11 5 2 9 8 9 12 9 13 17 12 9 7 8 9 6 5 9 13 9
5 5 5 5 6 6 6 6 6 7 7 7 7 7 7 6 5 4 5 6 8 10 12 13 12 9 7 7 12 17 16 12 10 6 3 5 7 6 6 7 6 6 10 9 7 6 8 13 11 5 6 6 5 7 9 6 2 2 6 4 4 6 5 1 -4 -4 0 7 13 4 4 11 4 8 16 9 8 14 11 5 5 8 9 8 7 8 11 12
5 5 5 4 5 5 5 6 6 7 7 7 7 7 8 8 8 7 6 5 5 7 8 11 12 11 10 8 7 10 16 18 15 9 5 5 6 5 5 6 5 6 8 8 7 6 8 12 8 4 5 7 5 4 7 7 5 2 0 2 1 2 6 -0 -4 -2 -4 2 10 5 6 9 4 11 17 9 1 6 11 7 8 11 11 10 9 7 8 14
6 6 6 5 5 4 4 4 4 5 6 7 7 7 7 8 8 8 7 7 6 6 6 7 9 10 11 11 9 6 9 16 19 14 9 6 6 4 3 5 5 6 8 8 7 5 8 11 7 4 6 10 7 1 5 8 11 2 -7 1 1 -3 -1 -3 -2 1 -5 -4 5 6 5 8 11 12 9 8 6 5 11 11 10 12 11 9 10 8 7 15
6 6 6 6 6 6 5 4 4 4 4 5 5 6 6 7 8 7 7 7 7 7 6 6 6 7 9 10 11 9 7 10 16 19 15 9 6 5 3 4 5 7 7 8 9 5 6 11 9 6 4 8 8 3 4 7 10 4 -6 -2 -2 -6 -9 -12 -9 -1 -0 -2 1 5 7 10 13 8 1 6 12 6 5 11 11 10 10 10 12 10 7 12
7 7 7 6 6 6 6 6 6 5 5 5 4 5 5 6 6 6 6 6 7 7 7 7 7 6 6 7 10 10 9 7 9 17 20 15 9 7 6 3 4 7 7 7 9 7 8 10 8 5 1 2 5 2 3 8 7 1 -0 1 -2 -3 -8 -12 -8 -4 -1 -1 -0 3 8 10 7 3 2 4 13 10 4 12 12 9 8 9 11 10 7 11
8 8 8 8 7 7 6 6 6 6 6 6 6 5 5 5 5 5 6 5 6 6 6 8 7 7 6 6 8 8 11 10 8 11 17 20 15 9 8 7 6 5 6 7 7 7 9 10 7 6 4 2 5 2 4 12 4 -5 1 2 -1 -0 -3 3 8 -0 -1 1 0 3 6 9 5 3 5 2 7 11 6 9 11 10 9 8 10 9 8 9
8 8 8 9 9 9 8 7 6 5 5 6 7 7 6 6 5 5 6 5 5 6 6 6 6 7 7 7 8 8 10 9 9 11 11 17 20 15 9 8 10 7 4 4 7 7 9 11 5 3 6 5 6 2 3 10 1 -5 0 3 7 4 0 15 19 4 1 1 -1 5 6 5 6 3 6 6 4 8 7 6 9 10 9 8 9 10 9 8
8 8 8 8 9 9 10 9 9 7 6 5 4 6 6 6 6 5 6 5 5 6 5 5 6 6 6 8 10 9 9 7 6 10 9 11 17 21 15 7 7 9 7 5 6 6 7 9 5 6 8 5 6 4 3 6 -1 -3 -0 5 12 2 -3 18 21 5 2 1 -1 6 3 2 9 3 2 7 1 2 6 5 9 10 8 9 9 11 11 7
8 7 7 7 7 8 9 9 10 10 9 8 6 5 4 4 5 5 5 5 6 6 5 6 6 6 5 7 10 8 8 9 6 7 10 10 11 16 19 14 6 5 9 8 7 6 4 5 7 12 9 1 5 6 5 7 2 1 2 4 6 -2 1 20 19 3 -1 -1 1 6 3 1 8 1 -1 8 5 4 7 4 8 10 7 10 9 10 12 7
6 6 5 5 5 6 7 8 8 9 9 10 10 8 6 5 5 4 4 4 5 5 6 7 6 7 4 4 9 9 7 7 6 6 9 11 9 9 15 19 14 7 6 8 9 7 4 4 9 12 10 7 5 2 6 9 5 4 3 2 2 1 9 17 11 4 2 0 2 7 5 -1 -0 3 6 15 14 8 7 3 6 10 7 9 10 9 11 9
4 5 5 4 4 4 4 5 5 6 7 8 9 10 9 10 9 6 4 4 4 4 4 5 6 7 5 2 6 7 4 4 8 8 6 9 9 8 10 15 19 15 7 4 5 8 4 2 7 10 13 14 5 -0 7 9 8 9 7 6 5 6 12 14 12 16 11 1 3 9 6 -2 -2 5 11 13 11 7 9 7 5 7 6 8 11 10 11 11
3 3 4 4 4 4 3 3 3 3 3 4 5 7 7 10 11 9 8 5 3 4 3 3 5 5 5 4 5 5 3 4 10 7 3 7 9 9 10 10 16 20 16 9 3 2 1 1 6 9 12 12 4 4 7 4 5 7 9 11 4 4 13 14 13 15 7 -2 3 11 7 -0 -2 2 6 8 7 8 14 14 6 4 5 6 9 12 13 11
5 3 3 4 4 4 4 4 4 3 2 2 3 3 4 6 8 9 10 9 7 6 4 4 4 4 5 5 4 5 5 4 7 5 3 6 8 9 10 9 9 13 17 16 10 5 1 1 4 5 8 10 10 10 5 8 12 5 9 15 2 2 12 11 8 6 5 4 1 5 5 -1 -1 1 1 3 6 7 11 12 4 3 6 5 7 10 13 12
5 4 3 3 3 4 4 4 4 4 3 3 3 3 3 3 4 6 7 8 9 9 7 6 5 4 4 4 4 5 6 5 5 5 6 5 5 8 9 9 7 7 10 12 16 15 11 9 6 4 4 7 11 7 1 11 17 6 5 10 1 3 10 7 10 7 2 2 -2 2 5 -2 -3 1 -0 2 8 9 12 14 5 1 6 6 6 8 12 12
5 4 3 3 3 3 3 3 3 4 4 4 4 3 3 4 4 4 5 6 7 9 9 9 9 7 4 4 4 3 3 5 5 6 8 6 2 4 8 9 9 10 10 10 14 15 16 17 12 9 7 6 8 5 4 11 12 5 6 9 3 6 8 3 12 10 -7 -4 3 -0 -2 -3 -2 -0 -1 0 4 7 16 23 14 5 7 6 6 7 8 12
7 6 5 5 4 3 4 4 4 4 4 3 4 4 4 4 4 4 5 6 5 6 9 10 11 11 9 6 5 3 2 4 5 5 8 7 2 3 5 5 8 11 10 11 13 12 13 16 17 18 12 6 6 5 9 15 11 4 4 11 7 7 9 5 12 11 -6 -2 5 -4 -3 1 -1 -1 -0 1 1 3 11 20 18 13 11 7 7 7 6 11
6 6 7 7 6 5 5 4 5 5 5 4 4 4 5 5 4 3 4 6 6 5 6 7 9 11 11 8 6 5 4 4 5 5 5 5 5 7 6 3 5 7 8 9 9 8 10 14 21 25 18 9 6 5 7 13 15 6 2 8 9 6 7 8 13 9 -4 -2 2 -1 4 2 -4 -3 -1 0 -1 1 8 14 17 17 14 8 7 8 6 9
5 5 5 6 6 6 5 5 5 5 6 5 5 5 5 6 6 5 3 5 8 7 4 5 7 9 9 7 7 7 6 6 7 5 4 4 6 8 5 4 6 6 7 8 7 7 6 12 22 24 22 15 9 6 5 10 14 10 3 3 9 10 7 7 13 7 -5 -3 3 2 3 -0 -5 -7 -6 -4 -6 -3 7 13 19 17 8 7 8 8 9 10
5 5 5 6 6 6 6 5 5 6 6 5 6 7 6 6 5 5 5 3 7 8 6 6 5 6 9 7 7 8 6 8 7 4 6 5 4 6 4 5 8 6 6 5 6 8 3 6 15 17 19 19 13 9 5 6 9 11 7 2 11 15 6 6 13 8 -6 -6 4 2 -1 1 -1 -3 -1 -3 -5 -1 6 13 25 21 5 5 10 8 10 11
5 5 5 6 6 7 7 6 5 6 6 6 7 8 7 7 5 4 5 3 5 7 7 9 5 3 7 6 4 7 7 7 8 7 7 7 5 4 4 6 6 5 6 5 5 8 4 3 6 6 11 15 16 14 9 6 6 9 7 4 16 15 8 15 13 2 -4 -5 2 1 -3 -2 0 8 5 -5 -1 5 4 10 21 18 4 4 9 8 8 9
5 5 4 5 6 7 8 7 6 6 6 6 7 8 8 8 7 6 7 7 5 3 4 7 6 2 3 4 5 10 9 7 11 11 8 9 9 8 6 5 6 8 10 8 4 6 6 5 5 4 7 10 13 16 15 12 7 6 4 5 19 16 11 21 7 -11 -5 -1 1 2 -3 -6 2 10 3 -1 4 1 1 9 12 9 7 11 14 11 8 9
5 5 4 4 4 5 8 7 6 7 6 6 7 8 8 7 9 7 8 12 7 3 4 3 3 5 3 1 2 4 7 8 10 9 6 6 6 6 5 3 6 8 8 7 5 10 10 6 6 6 7 8 8 13 18 15 11 10 9 8 17 16 10 17 7 -8 -5 -1 -1 2 -2 -3 5 7 5 9 3 -6 2 9 8 7 7 14 18 10 5 7
6 6 4 5 4 4 7 8 6 6 6 7 6 7 8 7 9 6 7 11 7 6 10 5 1 6 5 3 3 4 7 9 8 7 8 8 5 4 4 3 5 6 5 4 5 17 18 8 7 7 6 7 6 14 21 16 13 19 17 8 11 19 14 11 12 7 4 2 -2 -1 -1 -3 1 4 7 8 1 1 9 9 10 4 -1 14 24 14 8 5
8 8 6 6 6 2 4 7 6 4 5 7 6 6 6 6 8 6 6 9 6 7 13 10 4 4 5 6 5 4 6 8 9 10 8 6 4 5 5 5 7 7 6 5 3 10 13 9 9 6 6 9 6 11 19 12 12 21 17 6 8 19 17 12 13 9 5 3 -3 -2 1 -3 -3 3 6 7 8 11 10 10 11 -3 -6 16 22 15 15 10
10 11 8 6 8 5 3 5 6 6 6 6 6 7 6 6 6 5 6 7 5 6 10 12 9 6 6 8 7 5 6 6 7 9 9 9 8 8 10 9 10 9 7 7 5 1 3 9 10 5 7 13 7 6 10 7 13 21 14 6 8 13 16 17 12 5 1 -3 -6 -2 2 -1 -4 -2 1 6 18 22 13 8 4 -6 -0 14 9 6 12 12
12 13 13 7 7 9 6 5 6 6 8 8 6 7 6 6 6 5 6 5 4 6 9 11 10 7 4 7 10 8 7 9 9 6 6 11 12 9 9 7 6 7 5 7 9 3 0 3 3 3 9 12 9 6 5 5 13 20 14 7 6 7 14 17 10 7 1 -11 -10 1 4 -1 -5 -1 2 0 5 12 13 5 -4 -5 3 7 3 1 6 10
10 12 16 11 8 10 8 8 7 3 6 9 7 6 7 7 7 7 5 2 4 7 7 8 8 6 3 4 8 8 3 5 9 9 5 4 7 8 8 5 2 4 4 3 10 10 3 1 1 4 10 9 7 7 7 6 8 14 17 12 6 5 12 16 11 4 -7 -17 -8 9 10 -6 -12 2 10 5 1 3 9 8 -0 -0 3 5 4 -1 2 9
7 8 12 12 10 9 7 9 10 4 4 8 9 7 6 8 7 7 5 2 4 7 6 6 6 5 5 3 5 10 7 2 2 6 7 4 4 5 5 4 2 4 5 3 9 13 8 7 8 6 8 7 6 8 8 8 7 7 14 15 11 7 3 7 12 1 -15 -14 1 15 13 -12 -22 -1 11 7 8 4 4 8 4 0 2 5 4 -1 1 7
8 7 8 10 11 8 5 7 9 8 4 6 11 8 5 8 7 7 7 4 5 7 4 4 4 5 7 4 2 6 8 7 5 3 3 4 3 2 -1 -1 1 2 2 0 4 9 7 7 9 7 7 8 7 9 6 7 10 9 12 13 13 11 2 4 16 6 -10 -5 10 17 10 -14 -19 3 12 7 7 5 3 10 7 0 1 6 5 -1 -0 5
9 9 8 8 9 8 7 5 6 8 6 5 8 8 7 7 5 5 7 6 8 9 5 4 4 4 5 6 5 6 5 6 8 5 4 6 5 4 1 -2 -1 0 2 3 4 6 3 2 8 8 10 11 10 11 10 7 8 10 15 15 13 15 10 10 15 7 -4 -0 10 13 2 -12 -12 -2 8 9 6 4 6 10 8 2 1 4 7 2 -2 4
10 11 10 9 10 10 8 6 5 7 7 5 5 6 8 6 3 5 6 6 7 8 7 6 6 5 5 6 6 8 6 4 6 4 3 5 4 5 5 4 5 3 3 5 5 5 2 4 11 8 6 9 8 9 13 11 7 8 12 10 11 19 18 14 14 11 7 2 3 7 -2 -8 -7 -5 4 8 1 0 5 8 10 8 4 5 8 4 -2 4
9 10 11 12 11 10 10 9 7 7 8 8 5 4 7 6 3 5 5 6 6 7 8 7 6 7 6 6 6 7 7 6 7 5 3 4 3 3 3 3 5 5 4 4 3 3 2 4 11 10 6 8 6 6 8 8 7 9 9 5 10 20 19 16 16 16 15 -1 -5 10 8 -2 -4 -4 7 12 1 -1 1 1 6 8 7 10 8 -0 -1 8
7 8 11 14 13 11 11 11 10 9 9 8 6 5 8 7 6 7 6 5 5 5 7 7 7 7 6 6 6 5 7 7 7 7 5 4 4 5 6 5 5 5 5 4 2 4 3 1 3 8 10 12 10 9 7 5 4 6 7 8 12 16 15 15 15 17 18 2 -6 11 15 6 -1 -4 7 14 6 5 4 -1 1 2 3 10 14 10 11 13
9 8 11 14 14 13 13 13 12 11 10 9 9 9 9 9 9 10 7 6 6 5 6 7 7 6 6 6 5 5 6 5 7 8 6 6 8 7 8 9 9 8 7 7 5 4 5 3 1 2 6 9 9 8 7 5 3 3 5 8 10 10 9 12 10 13 22 14 4 11 14 12 11 4 5 12 8 6 8 3 -1 -0 1 5 16 26 22 11
11 8 14 16 11 11 16 18 15 13 12 11 11 12 11 11 10 9 7 6 6 6 6 7 6 5 5 6 7 7 6 4 6 7 6 6 7 5 2 1 1 2 3 5 5 5 6 6 5 5 6 6 4 3 4 5 5 6 5 4 5 5 7 10 5 7 18 16 10 15 16 17 21 14 4 9 11 6 6 7 1 2 8 5 7 19 18 5
12 8 20 20 9 9 15 20 19 15 14 13 12 13 13 12 11 11 10 8 7 7 6 6 8 7 6 6 8 8 6 5 4 5 5 6 6 6 5 3 3 3 3 3 3 4 7 6 3 5 5 1 -0 1 3 6 7 7 6 4 5 4 5 6 4 6 10 9 11 15 14 16 24 23 12 10 16 11 6 5 1 4 12 8 4 8 5 -0
18 15 24 20 8 9 14 19 22 18 16 17 15 13 12 11 12 12 11 9 7 6 6 7 7 8 8 7 7 6 5 5 5 4 4 8 10 7 4 3 6 9 11 12 7 3 9 13 8 2 1 3 7 7 5 6 7 7 7 7 7 7 6 3 2 5 4 2 6 2 -0 12 24 27 26 22 20 20 16 8 3 8 12 5 3 3 -4 -7
25 24 28 21 12 13 16 21 23 20 20 20 17 16 15 14 16 15 13 11 9 8 10 10 9 9 9 7 5 4 4 5 7 5 4 7 8 4 4 5 4 4 5 6 7 2 -1 4 7 3 2 5 9 10 7 6 7 7 7 8 8 8 8 3 -1 4 4 3 5 -1 -4 8 17 19 26 31 28 25 24 18 10 14 15 4 1 5 2 -1
35 32 35 33 23 18 20 26 27 24 22 20 19 20 19 18 18 17 16 14 14 14 13 11 8 8 7 7 7 6 4 6 7 6 6 6 4 2 6 8 6 8 6 3 9 8 -3 -3 5 6 6 5 5 8 8 6 6 5 4 6 7 6 7 4 0 2 4 2 2 5 3 3 7 9 12 22 29 26 25 27 21 16 17 7 -1 5 8 4
38 36 41 46 38 26 26 34 37 33 28 25 25 23 20 19 18 17 17 16 16 15 13 11 10 10 8 7 9 8 6 7 6 6 6 5 5 6 8 8 7 9 8 6 7 6 4 9 10 4 3 2 -0 -0 -0 0 4 5 3 2 3 5 5 2 1 1 3 1 -1 2 3 0 3 8 5 9 21 22 19 25 22 11 11 7 -0 4 7 3
34 33 37 46 47 40 36 38 39 38 35 32 31 28 24 22 19 17 17 15 15 14 13 13 12 11 12 10 8 8 8 7 5 4 5 5 7 8 8 9 9 7 6 7 5 1 3 9 7 1 1 1 -2 -1 4 7 4 0 2 2 3 6 5 1 2 2 1 1 -0 -1 2 0 -0 3 4 4 10 16 18 23 20 7 4 6 1 -1 -1 -2
27 27 29 34 41 44 44 42 42 43 40 36 33 31 27 22 20 21 19 17 19 17 13 15 15 12 12 10 9 9 8 8 7 6 6 6 8 8 8 8 8 7 8 8 6 4 2 3 6 8 8 6 3 2 10 17 10 0 4 6 4 6 7 5 2 1 2 2 -1 1 3 1 -0 3 7 5 5 10 16 23 27 20 11 9 4 -3 -5 -3
18 20 25 28 32 35 33 35 42 46 43 38 32 30 29 25 20 22 21 19 23 23 16 14 15 16 16 13 9 9 9 8 10 10 8 5 6 8 9 9 9 8 10 10 8 5 4 3 5 7 7 6 4 -3 -4 4 9 9 8 7 7 8 7 5 0 1 6 3 1 7 8 4 6 7 8 8 6 8 12 18 28 29 18 11 8 2 1 9
13 14 19 24 28 28 22 23 32 38 41 40 34 29 30 29 21 19 21 20 22 30 32 27 21 19 18 16 12 9 9 10 12 13 12 8 6 8 10 11 10 9 10 11 10 6 5 5 5 4 3 4 7 6 -1 -4 0 10 12 7 8 9 6 5 6 8 6 -2 -1 8 9 6 10 11 11 12 9 7 11 15 22 26 17 8 10 6 2 13
11 11 17 21 23 23 21 20 20 23 32 41 38 31 33 36 31 25 23 20 16 17 25 31 33 31 26 19 16 14 10 11 14 14 14 11 6 6 11 13 11 12 13 12 10 7 6 6 4 2 2 4 7 10 12 8 1 1 7 9 8 9 8 8 11 10 6 3 3 5 6 6 6 8 10 11 9 7 10 13 19 27 20 4 5 5 -3 4
11 10 16 20 19 17 18 19 16 12 17 29 34 32 32 36 38 36 31 29 22 12 10 14 20 31 35 26 21 18 12 12 15 13 14 17 10 3 7 11 11 13 14 10 10 10 8 9 6 2 4 6 6 8 14 18 14 7 5 8 8 7 7 7 9 7 6 9 10 8 9 11 7 6 8 8 6 3 7 13 17 24 23 7 0 3 -4 -5
11 10 14 19 20 17 15 17 19 15 12 17 21 24 28 28 31 36 36 36 32 23 22 22 15 21 33 33 30 26 16 14 19 14 14 21 16 3 0 9 14 15 12 9 9 10 10 11 10 10 8 5 9 14 9 12 27 23 2 -6 -1 3 3 4 7 7 4 6 9 7 6 7 8 11 12 11 9 4 4 12 14 15 22 16 3 2 4 4
12 11 13 17 17 16 14 13 15 17 15 15 15 17 22 22 25 31 33 35 34 24 24 32 26 19 22 25 31 33 25 20 21 16 14 21 24 10 -2 4 14 14 10 9 9 11 13 12 10 11 9 4 9 13 7 9 18 5 -15 -13 -1 2 3 5 6 5 4 4 3 3 6 6 4 7 12 12 12 9 5 7 12 14 18 17 9 4 7 12
Height
5892 5891 5891 5890 5889 5888 5888 5887 5886 5886 5885 5884 5884 5883 5883 5882 5882 5881 5881 5881 5881 5881 5880 5880 5879 5880 5880 5880 5881 5881 5882 5883 5883 5883 5883 5883 5884 5885 5886 5886 5887 5888 5889 5891 5893 5894 5894 5895 5895 5896 5896 5897 5897 5898 5898 5899 5899 5898 5898 5899 5900 5899 5898 5897 5896 5897 5898 5899 5900 5901 5901 5901 5901 5900 5900 5900 5900 5899 5899 5899 5900 5900 5900 5900 5901 5901 5901 5901
5891 5890 5890 5889 5888 5887 5887 5886 5885 5885 5884 5884 5883 5883 5882 5882 5881 5881 5881 5880 5880 5880 5880 5879 5879 5878 5879 5879 5879 5880 5881 5882 5882 5882 5882 5882 5883 5884 5885 5885 5886 5887 5888 5890 5892 5892 5893 5893 5894 5895 5896 5897 5897 5897 5898 5898 5898 5897 5898 5899 5899 5899 5898 5897 5895 5896 5898 5898 5899 5901 5901 5901 5902 5901 5901 5900 5900 5899 5900 5900 5900 5900 5900 5900 5900 5901 5901 5901
5890 5889 5889 5888 5887 5887 5886 5885 5885 5884 5883 5883 5882 5882 5882 5881 5881 5880 5880 5880 5879 5879 5879 5879 5878 5878 5877 5877 5878 5878 5879 5880 5880 5881 5881 5882 5882 5882 5883 5884 5885 5886 5887 5888 5889 5890 5891 5891 5892 5894 5895 5896 5896 5897 5897 5898 5898 5897 5898 5899 5899 5898 5898 5897 5896 5895 5896 5898 5898 5899 5901 5902 5903 5903 5902 5901 5900 5900 5901 5901 5901 5901 5900 5900 5900 5900 5901 5901
5889 5888 5887 5887 5886 5885 5885 5884 5884 5883 5883 5882 5881 5881 5881 5880 5880 5880 5879 5879 5879 5878 5878 5878 5878 5877 5876 5876 5876 5876 5877 5878 5879 5879 5880 5881 5881 5881 5882 5883 5884 5884 5885 5886 5887 5888 5888 5889 5892 5893 5894 5895 5896 5896 5897 5897 5897 5897 5898 5899 5899 5899 5898 5897 5896 5895 5895 5897 5898 5898 5900 5902 5904 5904 5902 5901 5900 5900 5901 5901 5901 5901 5900 5900 5900 5900 5900 5900
5887 5887 5886 5885 5885 5884 5883 5883 5882 5882 5881 5881 5880 5880 5880 5879 5879 5879 5879 5878 5878 5878 5877 5877 5877 5876 5876 5875 5875 5875 5875 5876 5877 5878 5878 5879 5880 5880 5881 5882 5882 5883 5883 5884 5885 5886 5887 5889 5891 5892 5893 5895 5896 5896 5897 5897 5897 5897 5898 5899 5900 5899 5898 5898 5896 5895 5895 5896 5898 5898 5899 5902 5904 5904 5902 5901 5900 5900 5900 5901 5901 5900 5900 5900 5900 5900 5900 5900
5886 5885 5885 5884 5883 5883 5882 5881 5881 5880 5880 5879 5879 5879 5878 5878 5878 5878 5878 5878 5877 5877 5876 5876 5876 5876 5875 5875 5874 5874 5874 5875 5875 5876 5877 5878 5879 5879 5880 5880 5881 5881 5882 5883 5884 5885 5887 5889 5890 5892 5893 5894 5895 5895 5896 5897 5896 5897 5899 5899 5899 5899 5898 5898 5896 5896 5895 5896 5898 5898 5899 5901 5903 5904 5903 5902 5901 5900 5901 5901 5901 5900 5900 5900 5900 5899 5900 5900
5885 5884 5883 5883 5882 5881 5881 5880 5879 5879 5878 5878 5878 5877 5877 5877 5877 5877 5877 5877 5876 5876 5876 5875 5875 5875 5874 5874 5873 5873 5873 5873 5874 5875 5876 5877 5878 5878 5878 5879 5879 5880 5882 5882 5884 5885 5886 5888 5890 5891 5892 5893 5895 5894 5894 5896 5896 5896 5897 5898 5898 5898 5898 5897 5896 5896 5895 5895 5897 5897 5898 5900 5903 5904 5903 5903 5902 5901 5901 5902 5901 5900 5900 5900 5900 5899 5899 5899
5883 5882 5882 5881 5880 5880 5879 5878 5878 5877 5877 5876 5876 5876 5876 5876 5876 5875 5875 5875 5875 5875 5875 5874 5874 5874 5873 5873 5873 5872 5872 5871 5872 5873 5874 5875 5876 5877 5877 5878 5878 5880 5881 5881 5882 5884 5885 5887 5889 5890 5891 5893 5893 5892 5892 5894 5894 5895 5895 5896 5896 5897 5897 5897 5895 5895 5895 5895 5896 5897 5897 5899 5902 5904 5903 5903 5903 5903 5902 5902 5901 5900 5900 5900 5900 5899 5899 5899
5881 5880 5880 5879 5879 5878 5877 5877 5876 5876 5875 5875 5874 5874 5874 5874 5874 5874 5874 5874 5874 5874 5873 5873 5873 5873 5873 5872 5872 5871 5871 5870 5870 5871 5872 5872 5874 5875 5876 5877 5878 5879 5879 5880 5881 5882 5884 5886 5887 5889 5890 5890 5890 5890 5891 5893 5893 5893 5893 5894 5895 5896 5897 5897 5895 5894 5895 5895 5896 5897 5896 5897 5901 5903 5903 5903 5903 5903 5903 5903 5901 5900 5900 5899 5899 5899 5899 5899
5879 5878 5877 5877 5877 5876 5876 5875 5875 5874 5873 5873 5872 5872 5872 5872 5872 5872 5872 5872 5873 5873 5872 5872 5872 5872 5871 5871 5871 5870 5870 5869 5869 5870 5870 5871 5872 5873 5874 5875 5876 5877 5878 5878 5879 5881 5883 5884 5885 5886 5886 5886 5888 5889 5890 5892 5893 5891 5891 5892 5894 5895 5896 5897 5895 5893 5894 5894 5895 5896 5896 5896 5899 5901 5902 5902 5902 5902 5903 5903 5901 5900 5899 5899 5899 5899 5899 5899
5877 5876 5875 5875 5874 5874 5874 5873 5873 5872 5871 5871 5870 5870 5870 5870 5871 5871 5870 5870 5871 5871 5871 5871 5870 5870 5870 5870 5870 5869 5869 5868 5868 5868 5869 5869 5870 5871 5872 5873 5874 5875 5876 5877 5878 5880 5881 5882 5882 5881 5882 5885 5887 5888 5889 5891 5891 5889 5890 5892 5894 5895 5895 5896 5895 5893 5893 5893 5894 5895 5895 5896 5897 5900 5901 5901 5901 5901 5901 5902 5901 5900 5899 5898 5898 5899 5899 5899
5874 5874 5873 5873 5872 5872 5872 5871 5871 5870 5870 5869 5869 5869 5868 5869 5869 5869 5868 5868 5869 5870 5869 5869 5869 5869 5869 5868 5869 5868 5868 5868 5867 5867 5867 5868 5869 5869 5870 5871 5872 5873 5875 5876 5877 5878 5879 5879 5878 5880 5883 5884 5885 5886 5887 5888 5888 5888 5889 5891 5893 5894 5894 5895 5894 5893 5893 5892 5893 5894 5895 5895 5897 5898 5900 5900 5901 5901 5901 5901 5901 5900 5899 5898 5898 5898 5898 5899
5872 5871 5871 5870 5870 5870 5869 5869 5869 5868 5867 5867 5867 5867 5867 5867 5867 5866 5866 5866 5867 5867 5867 5868 5868 5868 5867 5867 5867 5867 5867 5867 5866 5865 5866 5866 5867 5868 5869 5870 5871 5872 5873 5874 5875 5875 5876 5876 5877 5880 5882 5881 5883 5884 5884 5886 5886 5887 5888 5890 5892 5893 5893 5893 5892 5892 5892 5892 5892 5893 5895 5895 5896 5897 5899 5900 5901 5901 5901 5900 5901 5901 5899 5898 5898 5898 5898 5898
5870 5869 5868 5868 5867 5867 5867 5867 5866 5865 5865 5865 5864 5864 5865 5866 5865 5864 5864 5864 5864 5865 5866 5866 5866 5866 5865 5865 5866 5866 5865 5865 5865 5865 5865 5865 5865 5866 5867 5868 5868 5870 5871 5872 5872 5873 5873 5873 5875 5878 5878 5879 5881 5882 5882 5884 5885 5886 5887 5888 5891 5892 5892 5891 5891 5891 5892 5892 5891 5892 5894 5895 5896 5897 5898 5900 5901 5901 5901 5901 5901 5901 5900 5898 5898 5898 5898 5898
5867 5866 5865 5865 5865 5864 5864 5864 5864 5863 5862 5862 5862 5862 5863 5863 5863 5862 5862 5862 5862 5863 5864 5864 5864 5864 5863 5863 5865 5865 5863 5863 5864 5864 5864 5864 5864 5864 5865 5865 5866 5867 5868 5869 5870 5870 5870 5871 5873 5875 5876 5878 5879 5878 5880 5881 5882 5884 5885 5887 5889 5891 5891 5890 5890 5891 5891 5891 5891 5892 5893 5894 5895 5896 5898 5900 5901 5902 5902 5901 5900 5901 5900 5899 5898 5898 5898 5898
5864 5863 5862 5862 5862 5861 5861 5862 5861 5860 5859 5860 5860 5859 5860 5861 5860 5860 5860 5860 5860 5861 5861 5862 5862 5862 5860 5861 5863 5863 5862 5862 5863 5863 5862 5863 5863 5863 5863 5864 5864 5864 5865 5866 5867 5867 5868 5869 5872 5873 5875 5876 5875 5876 5878 5879 5880 5882 5883 5886 5888 5889 5890 5889 5889 5890 5890 5891 5891 5892 5892 5893 5894 5895 5897 5900 5901 5902 5902 5902 5900 5900 5900 5899 5898 5898 5898 5898
5861 5860 5859 5859 5858 5858 5858 5858 5858 5857 5856 5857 5857 5856 5857 5858 5857 5857 5857 5857 5858 5858 5859 5859 5859 5860 5858 5858 5859 5860 5860 5861 5862 5862 5861 5861 5861 5862 5862 5862 5862 5862 5863 5863 5863 5864 5865 5867 5869 5871 5872 5873 5874 5874 5875 5876 5878 5880 5882 5884 5887 5888 5888 5888 5888 5888 5889 5890 5891 5891 5891 5892 5893 5894 5897 5899 5901 5902 5902 5902 5901 5900 5900 5899 5899 5898 5898 5898
5857 5857 5856 5855 5855 5854 5854 5855 5855 5854 5853 5853 5854 5853 5854 5854 5854 5854 5854 5855 5855 5855 5856 5857 5857 5858 5856 5855 5856 5856 5858 5859 5859 5860 5860 5859 5859 5860 5860 5860 5860 5860 5860 5860 5861 5862 5863 5865 5867 5868 5870 5871 5872 5872 5872 5876 5879 5880 5881 5883 5885 5886 5886 5887 5887 5887 5888 5889 5889 5889 5889 5890 5892 5893 5896 5898 5899 5900 5901 5902 5901 5901 5900 5899 5899 5898 5898 5898
5854 5853 5852 5851 5851 5850 5850 5850 5851 5850 5849 5849 5850 5850 5850 5850 5850 5850 5851 5852 5852 5852 5853 5854 5855 5855 5855 5853 5852 5853 5855 5856 5857 5858 5858 5857 5857 5857 5858 5858 5859 5859 5859 5859 5860 5860 5861 5862 5864 5865 5867 5868 5869 5871 5873 5876 5878 5879 5880 5881 5882 5883 5884 5886 5885 5885 5886 5887 5887 5887 5888 5889 5890 5892 5894 5896 5898 5899 5900 5901 5901 5900 5899 5899 5898 5898 5898 5898
5850 5849 5848 5847 5846 5846 5846 5846 5846 5846 5846 5845 5845 5846 5846 5846 5846 5846 5848 5848 5848 5849 5850 5851 5852 5853 5852 5851 5849 5850 5851 5853 5854 5855 5856 5856 5856 5856 5856 5856 5857 5858 5858 5859 5859 5859 5859 5859 5861 5864 5866 5867 5868 5870 5872 5874 5875 5876 5876 5877 5879 5880 5882 5884 5884 5884 5885 5885 5885 5885 5886 5887 5889 5891 5893 5895 5897 5898 5899 5900 5900 5899 5899 5898 5898 5898 5898 5898
5845 5844 5844 5843 5842 5841 5841 5841 5841 5842 5842 5842 5841 5841 5841 5841 5841 5842 5844 5845 5844 5845 5846 5847 5848 5850 5849 5846 5846 5847 5848 5850 5852 5852 5853 5854 5854 5854 5855 5855 5856 5857 5857 5857 5857 5857 5856 5857 5860 5862 5863 5864 5866 5867 5869 5871 5872 5873 5874 5875 5877 5877 5880 5882 5882 5882 5883 5883 5884 5884 5884 5885 5887 5889 5891 5893 5895 5897 5898 5899 5899 5899 5898 5898 5898 5898 5898 5898
5840 5840 5839 5839 5837 5836 5836 5836 5836 5837 5837 5837 5837 5837 5836 5837 5837 5837 5839 5842 5841 5840 5842 5844 5844 5847 5846 5842 5841 5843 5846 5849 5849 5849 5850 5851 5851 5853 5853 5853 5854 5855 5855 5854 5854 5855 5855 5857 5859 5859 5860 5861 5862 5864 5866 5868 5869 5870 5871 5873 5874 5876 5879 5880 5880 5882 5882 5882 5883 5883 5882 5883 5885 5887 5889 5891 5893 5895 5897 5898 5898 5898 5898 5898 5898 5898 5898 5898
5834 5834 5834 5834 5833 5832 5830 5831 5831 5831 5832 5832 5833 5832 5832 5832 5832 5832 5834 5837 5839 5836 5836 5839 5840 5843 5843 5839 5836 5838 5844 5847 5846 5845 5846 5848 5849 5850 5850 5851 5852 5852 5852 5852 5853 5853 5854 5856 5856 5855 5856 5857 5858 5861 5863 5864 5866 5867 5869 5870 5873 5875 5877 5878 5880 5881 5880 5880 5882 5882 5881 5881 5882 5883 5885 5889 5892 5894 5895 5897 5897 5898 5898 5898 5897 5898 5898 5899
5828 5828 5828 5828 5828 5827 5825 5825 5825 5826 5827 5827 5827 5827 5827 5827 5827 5828 5828 5831 5836 5835 5831 5832 5835 5839 5840 5835 5831 5835 5841 5843 5842 5843 5843 5845 5846 5845 5846 5848 5849 5849 5849 5850 5850 5851 5853 5854 5853 5852 5853 5854 5856 5857 5859 5861 5863 5865 5866 5869 5873 5875 5875 5877 5879 5879 5878 5878 5879 5880 5878 5876 5877 5878 5882 5886 5890 5892 5893 5895 5896 5897 5898 5897 5897 5897 5898 5899
5822 5822 5822 5822 5822 5822 5820 5820 5820 5820 5821 5821 5822 5822 5822 5822 5821 5822 5823 5824 5830 5834 5829 5827 5829 5832 5834 5831 5830 5833 5835 5838 5840 5839 5839 5841 5842 5842 5843 5844 5845 5846 5847 5847 5847 5849 5851 5851 5850 5850 5850 5851 5853 5854 5856 5858 5860 5862 5864 5868 5872 5873 5874 5875 5876 5876 5875 5876 5877 5877 5875 5874 5874 5876 5879 5884 5886 5889 5891 5893 5895 5896 5897 5897 5897 5897 5897 5898
5815 5815 5815 5815 5816 5816 5815 5814 5814 5815 5815 5815 5816 5817 5816 5817 5816 5817 5818 5817 5822 5829 5827 5823 5823 5826 5828 5829 5829 5829 5829 5834 5837 5833 5834 5838 5838 5838 5839 5840 5842 5844 5844 5844 5844 5847 5848 5847 5847 5848 5848 5849 5850 5851 5853 5855 5857 5859 5863 5867 5869 5871 5872 5873 5874 5873 5872 5873 5875 5874 5873 5872 5872 5873 5876 5880 5883 5886 5888 5890 5893 5895 5896 5896 5896 5896 5896 5897
5807 5807 5808 5808 5809 5810 5809 5808 5808 5808 5809 5809 5810 5811 5811 5811 5810 5811 5813 5811 5814 5822 5822 5820 5819 5820 5823 5824 5825 5825 5826 5832 5831 5827 5832 5835 5833 5834 5834 5836 5839 5840 5841 5840 5842 5845 5845 5844 5845 5846 5846 5846 5848 5850 5852 5853 5854 5858 5863 5864 5865 5867 5870 5871 5871 5870 5870 5872 5872 5870 5870 5869 5868 5870 5874 5878 5879 5881 5884 5887 5891 5893 5894 5895 5895 5895 5896 5896
5799 5799 5800 5800 5800 5802 5803 5802 5802 5802 5802 5803 5803 5804 5805 5805 5804 5806 5806 5805 5807 5814 5817 5816 5815 5815 5818 5819 5820 5821 5823 5826 5824 5823 5828 5828 5827 5829 5831 5834 5836 5836 5836 5836 5840 5842 5841 5842 5843 5843 5843 5844 5847 5850 5850 5850 5851 5857 5861 5860 5861 5865 5867 5868 5867 5866 5868 5868 5865 5866 5867 5865 5865 5868 5872 5873 5874 5876 5880 5885 5888 5891 5892 5893 5894 5895 5895 5895
5791 5790 5791 5792 5792 5793 5796 5796 5797 5797 5796 5795 5796 5797 5798 5799 5799 5799 5800 5799 5802 5807 5810 5811 5810 5810 5811 5813 5815 5816 5817 5820 5819 5819 5821 5821 5823 5826 5828 5831 5831 5830 5831 5832 5837 5838 5837 5839 5840 5839 5841 5843 5846 5847 5847 5846 5849 5856 5857 5856 5859 5861 5863 5865 5863 5864 5866 5860 5858 5864 5865 5862 5862 5866 5868 5868 5869 5872 5877 5882 5885 5888 5890 5891 5892 5894 5894 5895
5782 5781 5781 5783 5783 5784 5786 5788 5791 5793 5789 5787 5788 5790 5791 5792 5793 5792 5792 5794 5797 5800 5803 5805 5804 5803 5804 5807 5809 5811 5812 5813 5814 5813 5815 5817 5820 5821 5824 5826 5824 5825 5827 5828 5832 5835 5834 5835 5835 5836 5839 5841 5842 5843 5843 5844 5848 5852 5852 5851 5854 5855 5858 5860 5859 5861 5859 5851 5853 5862 5863 5860 5859 5862 5865 5865 5868 5873 5876 5879 5881 5884 5887 5889 5890 5892 5893 5894
5774 5772 5771 5773 5774 5775 5778 5778 5781 5784 5782 5780 5780 5781 5783 5784 5785 5785 5785 5790 5793 5793 5795 5798 5798 5797 5798 5800 5803 5806 5806 5807 5808 5808 5810 5813 5814 5815 5819 5820 5820 5821 5822 5825 5830 5832 5831 5831 5834 5836 5837 5838 5839 5840 5841 5842 5845 5847 5847 5848 5850 5851 5853 5854 5854 5855 5849 5844 5852 5860 5862 5858 5853 5857 5863 5864 5868 5872 5874 5876 5878 5880 5884 5886 5888 5890 5891 5892
5765 5764 5763 5762 5763 5766 5769 5769 5770 5772 5774 5774 5772 5772 5774 5775 5776 5778 5781 5785 5786 5786 5788 5789 5790 5792 5793 5795 5798 5801 5802 5802 5803 5803 5805 5808 5810 5812 5815 5817 5818 5818 5819 5824 5829 5829 5827 5829 5832 5833 5834 5835 5835 5836 5837 5838 5840 5842 5843 5844 5844 5846 5847 5846 5846 5846 5841 5842 5852 5859 5859 5853 5848 5854 5862 5863 5866 5869 5871 5874 5876 5877 5880 5883 5885 5887 5889 5890
5755 5755 5754 5752 5753 5756 5758 5760 5760 5760 5762 5765 5764 5764 5764 5764 5767 5772 5776 5777 5777 5780 5781 5781 5783 5787 5788 5790 5792 5794 5796 5798 5799 5799 5799 5802 5804 5807 5810 5812 5813 5813 5816 5820 5822 5823 5823 5825 5827 5828 5831 5832 5832 5833 5834 5835 5837 5838 5839 5839 5839 5841 5840 5839 5841 5841 5841 5844 5851 5857 5855 5847 5845 5852 5859 5861 5864 5867 5869 5872 5874 5875 5877 5880 5882 5884 5886 5887
5744 5744 5743 5742 5745 5746 5746 5749 5751 5751 5751 5752 5755 5756 5754 5756 5761 5765 5767 5768 5770 5773 5774 5773 5776 5779 5782 5784 5785 5787 5789 5792 5794 5794 5794 5796 5798 5801 5804 5806 5808 5809 5812 5814 5815 5817 5819 5820 5823 5826 5829 5830 5830 5832 5834 5835 5835 5835 5837 5837 5836 5837 5837 5837 5840 5840 5842 5845 5848 5852 5848 5840 5843 5851 5857 5861 5863 5864 5867 5869 5871 5873 5875 5877 5879 5880 5882 5884
5733 5732 5731 5733 5735 5735 5734 5736 5739 5741 5740 5741 5743 5744 5746 5750 5753 5754 5756 5759 5762 5765 5766 5767 5768 5771 5774 5777 5778 5779 5782 5785 5788 5788 5788 5789 5791 5796 5800 5803 5805 5805 5807 5809 5811 5814 5815 5817 5822 5824 5825 5826 5826 5829 5831 5831 5831 5832 5833 5832 5831 5835 5838 5839 5840 5840 5842 5843 5843 5845 5841 5838 5844 5850 5855 5858 5859 5862 5864 5866 5869 5871 5873 5875 5876 5877 5879 5882
5721 5719 5719 5722 5724 5724 5724 5725 5727 5729 5730 5729 5730 5733 5739 5741 5742 5743 5746 5749 5752 5756 5759 5759 5760 5762 5764 5767 5769 5771 5775 5779 5779 5779 5781 5783 5785 5789 5793 5797 5799 5800 5802 5805 5808 5810 5811 5815 5820 5818 5818 5821 5823 5825 5826 5825 5827 5828 5827 5826 5830 5836 5838 5837 5837 5839 5840 5837 5837 5839 5838 5839 5843 5846 5851 5854 5856 5859 5862 5864 5866 5868 5870 5871 5873 5875 5877 5879
5708 5706 5706 5708 5711 5713 5713 5713 5714 5716 5717 5717 5719 5724 5729 5729 5731 5733 5735 5737 5741 5745 5749 5750 5751 5753 5754 5756 5760 5763 5768 5770 5770 5772 5775 5777 5778 5781 5785 5789 5793 5795 5797 5800 5802 5804 5805 5810 5814 5812 5813 5818 5820 5821 5820 5820 5822 5823 5823 5827 5832 5833 5833 5832 5832 5834 5834 5831 5831 5835 5836 5837 5839 5841 5847 5851 5852 5856 5859 5861 5864 5866 5867 5869 5871 5873 5875 5877
5693 5691 5692 5695 5698 5700 5699 5699 5701 5702 5702 5705 5709 5712 5715 5717 5720 5722 5722 5726 5730 5733 5737 5740 5742 5743 5744 5747 5750 5755 5759 5760 5762 5766 5768 5769 5770 5773 5777 5781 5784 5788 5791 5794 5795 5797 5799 5802 5807 5808 5808 5813 5814 5812 5811 5813 5816 5819 5822 5826 5826 5825 5826 5827 5826 5827 5828 5826 5827 5831 5834 5834 5835 5837 5843 5848 5850 5853 5856 5859 5862 5864 5865 5867 5869 5871 5872 5874
5678 5676 5675 5680 5686 5686 5684 5683 5686 5687 5688 5693 5697 5699 5701 5704 5708 5710 5710 5714 5718 5721 5724 5728 5731 5733 5735 5738 5741 5744 5749 5752 5755 5758 5760 5761 5761 5764 5768 5770 5774 5779 5783 5785 5787 5791 5793 5795 5799 5803 5804 5806 5806 5802 5802 5808 5813 5816 5817 5818 5818 5820 5822 5823 5823 5823 5825 5825 5826 5829 5830 5830 5832 5836 5840 5845 5848 5851 5853 5855 5858 5861 5863 5865 5867 5868 5869 5871
5661 5659 5657 5664 5671 5671 5669 5667 5669 5672 5675 5679 5682 5684 5688 5691 5694 5697 5698 5701 5704 5707 5711 5715 5719 5723 5726 5728 5731 5734 5738 5743 5746 5749 5752 5754 5754 5756 5760 5763 5767 5771 5773 5776 5779 5783 5785 5785 5790 5797 5798 5797 5796 5795 5799 5807 5810 5810 5810 5811 5813 5815 5817 5819 5819 5819 5822 5823 5824 5826 5825 5826 5832 5836 5839 5842 5845 5848 5850 5852 5855 5859 5861 5863 5865 5866 5867 5869
5645 5642 5639 5647 5654 5653 5652 5652 5653 5658 5661 5664 5666 5668 5672 5676 5680 5683 5685 5687 5690 5694 5698 5702 5705 5711 5715 5718 5721 5724 5727 5732 5737 5739 5742 5746 5746 5747 5752 5756 5759 5763 5766 5768 5769 5772 5775 5776 5782 5789 5791 5789 5790 5794 5800 5804 5806 5806 5807 5809 5811 5813 5813 5813 5813 5815 5818 5819 5821 5822 5821 5825 5832 5835 5837 5840 5842 5844 5846 5849 5852 5855 5858 5860 5861 5863 5865 5866
5629 5626 5622 5629 5635 5635 5636 5635 5637 5644 5646 5647 5650 5654 5658 5662 5666 5669 5671 5673 5677 5682 5686 5689 5692 5697 5702 5705 5710 5714 5716 5720 5725 5728 5733 5736 5736 5738 5745 5749 5750 5754 5758 5759 5761 5764 5767 5770 5774 5780 5784 5785 5788 5793 5795 5798 5801 5801 5800 5804 5808 5809 5809 5809 5811 5815 5818 5817 5819 5819 5817 5822 5831 5833 5835 5838 5839 5840 5843 5845 5849 5851 5854 5856 5857 5859 5861 5862
5613 5611 5607 5610 5614 5617 5619 5618 5622 5629 5630 5630 5635 5639 5643 5647 5650 5654 5657 5660 5665 5670 5671 5673 5677 5682 5687 5692 5697 5702 5705 5709 5713 5717 5721 5724 5726 5731 5738 5740 5741 5746 5749 5752 5756 5759 5761 5764 5766 5770 5777 5781 5784 5787 5788 5789 5792 5791 5791 5796 5800 5802 5806 5809 5812 5815 5815 5814 5816 5816 5812 5818 5828 5832 5832 5834 5836 5836 5838 5840 5844 5847 5850 5852 5854 5856 5858 5859
5601 5599 5596 5594 5594 5599 5603 5604 5607 5611 5612 5616 5621 5623 5627 5631 5634 5638 5643 5646 5650 5653 5656 5660 5665 5668 5673 5677 5683 5689 5695 5698 5701 5705 5709 5714 5718 5723 5728 5731 5734 5737 5741 5744 5748 5750 5754 5757 5757 5761 5768 5772 5774 5775 5775 5777 5780 5782 5785 5789 5794 5799 5804 5806 5807 5809 5808 5808 5811 5811 5808 5813 5824 5829 5829 5831 5832 5833 5834 5836 5839 5843 5846 5848 5851 5853 5854 5856
5591 5591 5588 5582 5580 5584 5588 5589 5593 5596 5597 5601 5605 5608 5611 5615 5619 5623 5628 5631 5634 5638 5643 5648 5651 5654 5657 5662 5668 5677 5683 5687 5690 5694 5698 5703 5708 5713 5718 5722 5725 5728 5732 5735 5738 5742 5747 5749 5749 5754 5759 5762 5764 5766 5767 5771 5774 5777 5782 5786 5791 5796 5798 5799 5802 5801 5800 5803 5807 5807 5805 5810 5819 5825 5826 5828 5829 5830 5831 5832 5834 5838 5841 5844 5846 5849 5851 5852
5584 5584 5583 5577 5572 5573 5574 5576 5580 5583 5583 5587 5591 5593 5596 5600 5604 5608 5613 5616 5618 5623 5630 5633 5636 5639 5643 5648 5655 5664 5670 5675 5679 5683 5687 5692 5697 5702 5708 5712 5715 5719 5723 5726 5730 5733 5738 5741 5744 5748 5751 5755 5760 5764 5768 5773 5774 5775 5779 5783 5787 5791 5793 5795 5795 5793 5795 5801 5802 5804 5806 5809 5815 5821 5824 5825 5826 5827 5829 5830 5831 5834 5836 5839 5842 5844 5846 5848
5578 5577 5576 5574 5569 5566 5565 5566 5569 5572 5573 5576 5578 5579 5582 5587 5590 5594 5599 5601 5604 5610 5615 5617 5621 5625 5629 5635 5642 5650 5656 5662 5668 5674 5677 5681 5686 5691 5696 5701 5705 5710 5714 5717 5721 5725 5729 5734 5737 5738 5742 5747 5753 5758 5764 5767 5769 5771 5775 5779 5782 5786 5789 5789 5787 5788 5794 5797 5797 5802 5807 5807 5810 5817 5820 5822 5824 5825 5826 5827 5828 5830 5833 5835 5838 5840 5842 5844
5575 5572 5570 5570 5567 5564 5561 5561 5562 5563 5565 5567 5569 5569 5570 5574 5578 5581 5585 5588 5593 5598 5601 5603 5607 5611 5616 5622 5629 5637 5643 5649 5656 5662 5666 5671 5677 5682 5686 5691 5695 5700 5705 5708 5712 5716 5721 5727 5728 5728 5733 5741 5746 5753 5757 5759 5761 5766 5769 5773 5777 5781 5783 5783 5783 5786 5791 5791 5794 5802 5806 5804 5807 5812 5816 5818 5821 5822 5823 5824 5825 5826 5829 5832 5834 5836 5838 5840
5572 5570 5567 5565 5564 5562 5560 5559 5558 5559 5559 5561 5563 5563 5563 5566 5569 5571 5574 5578 5583 5588 5588 5590 5594 5598 5605 5611 5617 5623 5630 5636 5643 5649 5655 5662 5668 5673 5678 5682 5686 5691 5696 5699 5703 5707 5713 5718 5719 5720 5726 5733 5739 5745 5751 5752 5755 5758 5762 5767 5771 5774 5778 5780 5781 5785 5787 5788 5793 5798 5799 5800 5804 5808 5810 5814 5816 5818 5819 5820 5821 5822 5825 5828 5830 5832 5834 5837
5569 5567 5565 5563 5561 5559 5559 5558 5558 5557 5556 5557 5559 5559 5559 5561 5562 5563 5567 5570 5575 5578 5577 5578 5582 5587 5593 5599 5603 5609 5616 5621 5628 5638 5647 5653 5659 5666 5669 5672 5678 5683 5687 5691 5694 5698 5704 5709 5711 5713 5719 5726 5732 5738 5744 5747 5749 5751 5754 5760 5764 5768 5772 5774 5777 5780 5781 5784 5789 5791 5792 5796 5801 5804 5806 5809 5811 5813 5815 5817 5818 5819 5820 5823 5825 5827 5830 5833
5566 5564 5563 5562 5560 5557 5557 5557 5556 5556 5554 5554 5556 5556 5556 5557 5557 5558 5562 5564 5568 5571 5569 5569 5573 5577 5581 5587 5592 5598 5604 5608 5616 5629 5637 5642 5649 5657 5660 5664 5670 5674 5679 5684 5686 5690 5696 5700 5704 5707 5711 5718 5726 5730 5735 5740 5743 5743 5746 5751 5756 5761 5765 5768 5771 5773 5776 5780 5784 5785 5786 5792 5799 5802 5803 5805 5807 5809 5811 5813 5814 5815 5816 5819 5821 5823 5826 5829
5563 5561 5560 5560 5558 5556 5555 5555 5554 5554 5553 5553 5554 5554 5554 5554 5553 5555 5558 5559 5562 5565 5564 5564 5567 5569 5573 5580 5584 5588 5593 5598 5606 5616 5623 5629 5638 5646 5651 5657 5661 5665 5672 5676 5678 5683 5688 5692 5697 5700 5703 5712 5720 5721 5726 5732 5732 5732 5738 5745 5750 5754 5759 5763 5766 5768 5772 5776 5778 5779 5782 5790 5797 5798 5799 5800 5802 5804 5807 5809 5810 5812 5814 5816 5818 5821 5823 5826